RH
29 28 26 22 18 16 14 10 11 14 16 15 15 16 16 17 18 19 18 18 18 20 17 16 16 17 19 20 22 22 22 23 28 33 37 39 40 40 41 43 44 44 45 45 45 48 49 49 49 50 52 54 54 54 53 51 51 53 55 59 59 56 57 61 64 66 67 66 64 64 67 66 65 67 69 69 67 67 69 71 74 77 78 80 84 82 79 75
28 27 27 24 19 16 15 12 11 14 16 15 15 15 16 16 17 18 17 17 17 16 15 14 14 16 19 23 26 27 29 31 35 38 39 39 39 40 41 42 43 44 45 45 46 47 47 49 50 49 52 55 53 53 54 51 51 52 56 59 57 55 56 58 62 63 65 65 61 63 66 64 63 64 66 66 64 65 66 70 74 77 77 75 74 72 69 65
28 27 27 26 22 17 15 13 11 14 16 14 14 14 15 16 16 17 17 16 15 15 15 15 16 19 24 28 31 34 36 39 41 42 41 40 40 40 41 43 43 45 46 47 47 48 50 51 51 51 54 54 52 53 53 51 50 51 57 58 55 55 55 56 58 59 61 62 60 61 63 61 61 62 65 64 63 65 67 68 71 73 72 69 66 61 57 54
28 26 26 28 24 18 15 13 11 13 15 14 13 14 15 15 15 16 16 15 14 15 17 18 21 24 27 30 33 37 40 42 44 43 42 41 42 42 42 43 44 47 49 50 49 50 51 51 51 52 55 53 52 52 51 50 51 53 57 55 54 57 56 54 55 55 58 60 60 61 61 60 60 61 63 64 65 67 67 66 66 66 64 62 60 53 49 46
28 26 26 28 27 20 15 12 10 12 15 14 13 13 14 14 14 15 15 15 15 17 19 22 25 28 29 31 34 38 41 43 44 43 42 42 44 45 44 44 46 49 51 51 51 50 51 50 51 53 55 55 52 52 50 48 49 52 53 52 55 58 55 53 54 54 56 58 59 60 60 60 59 61 64 67 68 66 65 64 62 60 59 57 53 47 45 42
27 25 25 27 28 23 16 12 10 11 14 13 12 12 13 14 14 15 15 15 16 18 21 25 27 28 30 33 36 40 42 43 43 43 43 44 45 46 47 47 48 50 51 51 50 49 50 51 53 55 54 55 53 51 50 49 51 53 52 53 54 55 54 53 54 54 57 59 58 57 58 58 59 62 66 69 69 66 65 64 59 57 55 52 47 43 41 38
26 24 24 26 28 24 17 13 11 11 14 14 12 11 13 14 14 15 15 16 18 20 24 26 27 28 31 33 36 39 42 42 42 43 44 45 47 47 48 49 49 50 50 50 50 49 51 52 53 55 55 55 54 53 52 52 55 56 55 55 54 56 57 56 57 57 58 58 56 56 58 59 60 61 65 68 67 65 63 61 57 54 52 47 42 40 37 35
25 24 23 25 28 25 18 15 12 12 14 14 12 11 12 13 14 15 15 17 20 23 26 27 27 29 31 34 37 40 43 42 42 44 45 47 47 47 48 49 50 50 50 50 50 49 50 51 52 55 56 55 56 56 56 57 58 58 57 57 57 59 59 58 58 57 57 57 57 59 59 60 60 61 63 65 65 62 60 57 53 50 47 43 40 38 35 32
25 23 22 24 27 25 19 16 13 11 12 13 12 11 12 14 15 15 15 18 22 25 27 28 29 30 31 34 35 38 42 42 43 45 45 47 47 46 48 49 49 50 51 50 49 49 50 50 51 52 53 53 56 57 58 61 61 59 58 58 60 60 60 60 58 57 58 58 59 59 58 59 61 61 61 61 60 58 55 52 49 47 43 40 38 35 33 31
24 23 22 23 26 25 20 17 14 11 11 12 11 11 12 13 15 15 16 19 23 25 27 29 30 30 31 33 33 36 40 41 43 45 45 46 46 46 47 48 49 49 51 51 49 49 49 50 50 50 51 52 54 56 56 57 58 57 57 58 60 60 61 61 59 60 59 58 61 60 57 57 59 61 59 56 57 55 51 48 48 46 41 37 36 33 32 31
24 23 21 22 25 24 21 18 15 12 10 10 11 11 12 14 14 15 17 21 23 25 28 28 29 29 30 32 33 36 39 40 43 46 45 45 46 46 47 47 48 48 51 52 51 49 47 48 50 51 52 52 52 52 51 53 55 56 55 55 56 58 60 61 61 62 61 60 62 58 53 53 57 59 57 55 56 53 48 47 49 46 39 35 34 34 33 31
24 23 21 22 24 24 22 19 16 13 10 10 11 11 13 15 15 15 18 21 23 24 27 28 28 28 30 33 35 37 38 40 43 46 45 45 45 46 47 48 48 48 50 52 52 51 46 46 49 51 52 53 54 52 50 51 52 52 54 55 55 57 58 59 59 59 57 57 60 59 56 55 56 55 54 54 53 50 48 48 49 46 38 33 34 34 33 32
25 23 21 21 23 23 21 20 17 14 11 10 12 12 13 16 16 16 18 21 22 24 26 27 27 28 32 35 36 37 38 40 42 44 45 46 46 47 47 48 48 48 50 53 54 52 47 45 46 48 50 53 54 52 49 48 50 51 55 57 58 58 55 54 54 54 53 51 56 62 59 54 52 49 51 52 50 50 50 48 47 44 38 35 34 32 31 33
25 23 22 21 22 22 21 20 18 15 12 11 11 12 14 17 17 17 18 20 22 24 25 26 27 29 33 36 36 36 37 38 40 42 45 46 46 47 48 48 49 49 49 52 54 51 46 44 45 47 49 50 49 49 48 49 52 53 53 55 58 57 53 50 48 51 52 46 50 61 55 46 45 45 48 50 50 51 49 45 43 41 38 35 35 32 30 33
25 24 22 21 22 22 20 19 19 17 14 11 11 13 16 17 17 17 18 20 22 23 24 26 28 31 34 35 35 35 35 37 38 40 42 44 45 46 47 48 48 49 50 52 52 49 45 45 46 46 49 50 50 52 53 52 52 54 56 53 51 50 50 48 43 47 51 43 47 59 53 43 43 43 46 48 48 50 47 43 40 38 37 35 35 33 30 31
25 24 23 21 22 22 19 19 19 18 15 12 12 14 17 17 17 17 18 20 21 23 24 26 28 30 33 34 34 34 35 36 36 38 39 41 43 44 45 46 47 48 49 51 51 48 46 46 47 44 46 50 53 57 60 57 52 51 54 52 50 49 51 49 43 43 46 45 47 53 51 46 43 41 44 46 47 48 45 42 40 37 37 35 35 34 31 31
26 24 23 22 22 22 20 18 19 19 17 14 12 15 17 17 17 18 18 20 21 22 24 26 27 29 31 31 32 32 33 34 35 36 37 39 41 42 43 44 46 47 49 50 50 50 48 47 47 45 46 48 52 58 61 61 56 50 49 48 48 50 51 50 47 44 43 46 48 47 48 46 41 40 41 43 45 45 42 42 41 40 38 36 36 37 33 32
26 25 23 22 22 22 20 18 18 19 18 15 13 15 18 18 18 18 19 20 21 22 24 24 26 28 30 30 31 31 32 32 33 34 36 37 39 40 40 42 45 47 49 51 51 51 49 47 48 49 50 49 51 54 53 52 54 52 52 49 47 48 48 48 48 45 44 47 49 48 48 43 40 40 38 38 41 42 42 42 43 42 40 37 38 38 35 35
26 25 24 23 22 22 21 19 18 19 18 17 15 15 18 18 17 18 20 20 20 21 23 24 25 27 28 29 30 30 31 31 31 33 34 35 37 39 40 40 42 45 50 52 51 50 49 49 51 53 54 51 51 51 46 45 47 48 50 50 49 49 45 44 46 44 46 51 49 48 49 44 41 39 35 33 35 40 42 41 42 42 40 39 39 40 38 38
26 25 24 23 23 23 22 20 18 19 18 18 16 15 18 19 18 18 20 20 19 19 21 23 24 24 26 28 29 30 30 30 31 32 33 34 35 36 39 40 40 43 47 49 47 46 49 51 50 50 50 50 51 51 48 48 48 47 49 48 49 50 45 43 45 43 47 53 48 44 44 42 39 36 33 32 31 35 39 39 41 40 39 38 38 41 40 38
26 25 24 23 23 23 24 21 19 19 19 19 19 17 19 20 20 19 19 19 19 19 20 21 22 23 25 27 29 29 30 30 31 32 33 33 34 35 38 39 42 43 41 42 42 41 46 48 46 46 48 49 51 50 51 52 52 52 53 53 52 51 46 43 45 44 46 52 47 42 43 41 37 35 33 32 31 32 34 36 37 38 40 39 35 38 40 38
26 25 24 24 23 23 25 22 19 20 19 19 21 21 20 20 21 20 20 20 19 19 20 20 21 22 25 27 28 29 29 30 30 32 33 32 34 36 36 38 42 41 37 40 43 42 43 43 42 44 45 48 51 50 52 53 53 54 55 57 54 49 49 47 46 44 45 50 47 41 43 41 34 33 32 31 32 33 33 33 35 39 43 42 36 35 38 38
27 25 24 24 23 24 26 24 21 20 19 19 22 23 22 20 20 19 21 22 20 19 20 20 21 22 25 27 28 28 29 30 30 31 33 32 34 36 36 38 40 40 38 40 43 43 42 42 42 44 45 49 52 50 52 54 53 53 54 56 52 48 52 52 48 45 42 44 41 40 44 39 33 33 33 31 30 32 32 31 32 34 37 38 35 33 36 38
27 25 24 24 24 24 26 25 22 20 20 20 22 24 24 21 20 19 21 22 19 19 21 20 20 22 23 24 26 28 28 28 29 31 32 32 34 34 35 37 39 42 40 37 38 40 40 42 43 45 46 50 52 51 54 57 55 52 51 53 51 47 48 49 46 44 44 41 37 43 46 36 30 33 34 31 27 27 28 26 27 27 27 30 31 30 34 36
27 26 25 24 24 25 26 26 24 22 20 21 22 25 26 23 20 20 22 22 18 18 20 19 20 21 21 22 24 27 27 27 29 31 31 32 33 34 34 36 39 41 39 37 39 39 38 41 44 47 48 48 51 52 52 56 57 53 51 52 51 46 43 44 45 48 52 46 37 47 49 34 28 31 30 29 25 25 25 22 24 26 24 25 25 27 32 33
28 27 25 24 24 25 26 27 26 24 22 21 22 25 27 25 22 20 21 22 20 19 19 20 20 20 20 21 22 25 27 27 28 28 29 31 32 33 35 35 37 38 39 39 39 37 37 39 42 46 48 49 52 52 49 53 57 54 50 50 51 49 44 41 43 46 48 42 34 41 46 36 32 30 28 29 28 27 27 24 25 27 26 25 24 25 30 35
28 27 26 25 25 25 27 27 27 27 25 22 21 23 27 26 22 22 23 23 22 20 19 20 20 19 19 20 21 23 24 26 27 27 28 30 29 31 34 34 35 35 37 41 41 38 39 41 43 45 49 51 51 50 48 50 54 52 48 50 50 51 49 42 42 43 41 41 38 35 40 39 33 30 29 31 32 31 29 29 29 30 30 27 26 27 29 33
28 28 26 25 25 26 26 27 28 28 26 23 21 21 25 25 23 25 25 23 21 19 19 20 20 19 18 19 20 20 21 22 25 26 27 28 28 29 32 33 33 33 33 39 41 39 39 42 43 45 50 50 47 47 46 48 51 50 47 49 49 51 52 49 47 46 45 47 43 36 41 42 33 31 34 35 38 37 33 32 32 32 32 30 29 29 29 30
27 28 27 26 25 26 26 27 28 29 27 24 22 21 23 25 26 28 26 23 21 19 19 20 20 19 18 18 19 19 19 20 21 24 25 26 26 28 30 31 31 32 31 34 37 37 38 41 41 43 47 47 44 44 44 46 48 48 47 48 48 48 52 52 50 51 51 50 45 39 43 46 38 35 38 40 42 42 39 36 34 33 35 35 32 30 30 30
27 28 28 26 26 26 27 28 28 29 29 26 23 22 22 26 29 30 28 25 23 20 19 21 20 19 18 18 18 18 20 20 19 21 23 24 24 25 28 29 29 31 31 31 34 35 35 38 39 40 43 42 42 42 42 44 44 46 49 49 49 48 49 51 50 53 55 53 50 45 45 53 51 41 40 43 41 40 41 40 37 35 35 36 34 32 31 31
27 28 28 27 26 26 27 28 28 29 30 27 23 22 24 27 30 32 31 26 24 21 20 21 20 18 18 18 18 19 19 20 19 19 21 22 23 24 27 29 29 31 32 32 33 33 34 37 37 37 39 39 41 41 41 41 42 45 49 51 54 52 49 51 51 50 51 50 51 51 50 56 57 46 44 46 44 42 44 44 43 40 38 38 37 36 37 36
27 28 28 28 27 26 27 28 28 29 31 29 24 22 25 27 28 31 31 27 26 25 22 21 20 18 18 18 19 19 19 20 20 19 19 20 22 25 27 28 28 30 33 33 33 33 33 34 34 34 35 37 41 45 43 40 42 46 46 49 53 49 45 48 49 48 49 48 48 51 54 55 52 46 45 46 45 45 45 46 47 46 44 43 43 45 45 43
27 28 29 29 28 27 28 28 29 30 32 31 26 23 25 27 28 30 30 28 30 28 23 22 20 18 18 19 19 20 20 21 21 20 20 20 21 24 24 24 24 27 30 30 31 34 35 33 33 34 34 34 39 46 45 41 41 43 41 44 47 45 46 48 47 48 50 48 46 49 53 51 47 43 43 43 43 43 44 46 47 47 47 46 47 50 49 46
28 29 30 30 30 29 27 28 30 30 32 33 29 25 25 26 28 30 30 30 30 28 24 22 21 19 19 20 20 21 21 22 22 21 21 20 21 23 24 24 24 24 26 27 29 32 35 35 33 34 35 34 36 39 39 39 39 37 37 41 43 43 46 47 45 46 48 47 45 47 47 46 46 44 41 41 41 41 43 45 47 47 46 46 48 49 49 48
29 30 30 31 31 30 28 27 30 31 33 34 31 27 25 25 26 29 31 30 29 28 26 24 21 20 20 21 22 22 23 23 22 21 21 21 21 22 23 24 24 23 24 27 28 28 31 32 30 32 34 33 35 34 33 38 41 37 36 39 39 39 43 45 44 45 48 46 43 45 46 45 46 45 42 43 43 42 43 44 46 47 46 47 48 48 48 49
31 31 32 33 33 31 30 29 30 31 33 35 34 30 26 25 27 28 29 29 29 29 28 25 22 21 22 22 22 23 23 23 22 22 21 21 21 22 22 22 23 23 24 26 28 28 31 32 29 30 32 31 33 33 30 34 38 37 36 36 35 35 39 45 47 47 49 47 43 45 47 45 47 47 45 47 46 45 46 44 45 46 47 48 48 47 47 48
33 34 35 34 34 34 33 32 31 32 33 35 35 33 29 26 26 27 28 29 30 30 30 29 25 23 24 23 23 23 23 23 22 22 23 22 21 22 22 23 23 23 23 24 27 28 29 32 28 28 31 31 30 31 30 28 30 36 36 34 35 37 38 41 44 45 46 45 43 44 44 43 45 45 44 46 46 47 48 46 47 48 49 49 49 50 49 49
34 36 37 37 36 36 35 34 33 32 33 34 35 34 31 28 26 26 28 30 31 31 31 33 30 26 25 23 23 23 22 23 23 23 23 22 22 22 23 24 25 25 23 23 27 27 26 31 32 28 30 30 28 30 33 30 27 30 30 29 34 40 40 39 40 43 45 45 43 43 45 44 41 40 41 43 45 46 46 48 49 49 49 49 50 51 50 51
36 38 40 40 39 38 36 35 35 34 33 34 36 36 33 30 29 28 30 31 31 32 32 33 32 28 26 24 24 23 22 23 24 23 23 22 23 23 23 24 25 25 25 24 26 27 26 31 34 30 29 30 31 33 36 35 31 29 30 31 33 36 38 38 39 40 40 42 43 42 45 46 40 37 39 40 42 45 45 46 48 48 48 48 48 50 50 51
39 40 43 43 42 41 38 37 36 35 33 34 37 37 34 32 30 30 31 32 32 33 34 33 32 31 29 25 24 23 22 23 23 23 24 23 23 25 24 25 26 26 25 25 26 28 29 29 30 30 28 30 34 35 33 34 33 32 34 35 35 35 37 38 38 37 36 38 41 39 41 46 42 36 36 36 38 42 44 43 44 45 46 47 48 49 49 51
44 44 44 44 44 44 42 39 37 35 34 35 35 34 34 35 33 31 33 34 33 33 33 33 33 33 32 28 26 24 22 23 23 23 25 23 24 27 27 25 26 26 25 26 26 28 30 28 28 29 29 30 33 30 28 29 30 32 34 34 34 34 34 36 36 35 34 35 36 36 38 44 42 35 34 34 34 37 40 39 39 41 43 45 48 50 50 52
50 47 46 46 45 45 45 43 40 38 36 35 35 34 35 36 35 33 34 35 34 33 32 32 33 33 33 31 29 26 23 24 23 23 25 25 25 27 27 27 27 26 26 27 28 28 30 30 29 29 30 30 30 27 28 30 28 30 32 32 33 34 34 36 35 34 35 34 34 34 35 40 40 34 33 35 33 34 38 38 36 36 40 43 48 50 51 53
56 51 49 49 47 47 47 44 43 41 38 37 36 35 35 35 35 35 35 35 35 34 33 32 32 33 34 33 31 29 26 26 25 25 25 25 25 25 26 28 28 26 26 27 28 29 30 31 31 31 29 28 28 27 28 29 30 32 34 32 32 34 33 35 35 34 35 37 37 36 36 39 41 36 33 35 34 35 37 38 36 35 39 43 46 49 52 54
60 55 51 51 51 50 47 45 44 42 41 41 39 37 36 35 35 35 35 35 36 36 34 33 32 33 34 33 33 32 30 29 28 27 26 26 27 27 27 28 28 27 27 30 30 28 29 30 30 32 34 32 31 31 32 32 32 33 33 31 30 31 30 32 36 35 34 38 38 36 37 40 41 38 36 36 35 35 37 37 35 36 40 43 45 48 51 54
61 56 52 52 53 53 50 47 45 43 42 43 42 39 39 37 35 35 35 35 36 36 36 35 33 32 33 34 35 34 33 33 32 29 28 27 27 28 27 28 29 28 29 32 31 28 29 30 29 32 37 36 33 34 35 33 32 31 30 29 28 29 30 32 34 33 34 36 35 34 36 37 37 38 39 37 35 35 36 36 35 36 40 43 44 47 51 53
64 58 53 52 53 54 53 51 49 45 44 43 42 41 41 39 36 35 35 35 36 37 38 37 34 33 33 34 36 37 36 35 34 32 30 29 29 28 28 28 29 29 30 30 29 28 29 30 29 31 34 34 32 32 30 28 29 30 30 29 29 29 30 31 31 31 33 33 31 33 36 34 34 37 39 40 37 34 35 36 36 38 40 43 45 47 49 51
67 61 56 54 54 53 52 53 51 49 47 45 42 42 42 41 39 37 37 37 37 37 38 38 36 35 35 35 37 39 39 37 36 35 33 32 31 29 29 29 29 31 33 30 28 28 29 29 31 31 31 30 30 29 27 27 28 29 29 29 30 29 29 31 32 32 32 31 31 34 35 31 32 35 37 40 38 35 35 37 38 40 41 43 46 48 49 51
69 65 62 59 56 53 52 52 52 51 52 49 45 45 43 41 40 40 39 38 38 38 39 40 39 36 36 36 38 40 40 40 39 38 35 34 33 30 30 30 29 31 33 31 29 30 29 30 32 32 30 28 28 28 28 28 28 28 29 30 31 30 31 32 33 32 32 30 30 32 33 31 31 33 35 38 38 36 37 39 41 42 42 43 45 47 48 49
72 70 68 64 58 56 55 54 51 51 52 51 49 48 45 42 41 41 40 40 40 39 39 41 41 39 37 37 37 40 42 42 42 41 38 35 35 33 33 34 33 34 33 31 32 33 31 33 34 31 30 30 28 28 29 29 30 30 29 30 31 31 31 31 31 31 30 29 29 30 31 31 31 32 34 35 37 38 39 41 43 42 41 42 43 45 46 47
77 74 72 69 63 59 59 57 54 51 51 51 50 48 46 44 42 41 40 41 42 42 41 40 42 42 39 37 37 39 41 42 43 44 42 39 37 35 35 37 39 39 36 33 36 35 33 36 37 33 32 32 30 28 28 29 31 30 30 30 31 32 31 31 31 30 29 30 30 30 31 35 35 32 32 35 37 39 41 42 43 42 41 42 42 42 43 45
78 77 76 74 67 62 61 60 56 54 53 51 50 49 48 45 42 41 42 41 43 45 43 42 44 45 43 40 38 38 40 40 42 44 43 42 40 39 38 37 38 38 37 35 36 37 36 36 37 35 32 34 35 34 31 31 30 30 30 32 32 33 33 33 32 31 30 31 32 32 35 38 36 31 33 37 37 39 41 42 43 42 41 42 42 41 41 43
76 77 78 77 70 64 63 61 58 57 55 53 52 50 48 46 43 43 45 43 44 45 45 45 46 47 46 45 41 39 40 40 41 43 43 42 42 41 40 39 37 37 37 36 36 39 39 36 36 37 33 35 41 38 33 33 32 32 33 33 33 33 32 30 30 30 30 30 32 34 35 34 31 30 35 37 36 37 41 43 44 43 42 42 42 42 42 43